Probability
0 0 0 0 0 0 0 0 0 0 0 0 0 1 1 1 3 9 13 15 16 14 13 18 23 24 26 26 25 22 17 11 8 8 7 5 4 3 1 0 0 0 0 0
0 0 0 0 0 0 0 0 0 0 0 0 0 0 1 1 3 8 13 16 17 15 15 21 26 27 28 29 29 26 20 12 9 8 7 5 4 4 3 2 1 0 0 0
0 0 0 0 0 0 0 0 0 0 0 0 0 0 1 1 2 8 13 16 18 18 20 25 29 29 30 31 29 26 20 12 9 8 7 6 6 6 5 4 2 1 1 1
0 0 0 0 0 0 0 0 0 0 0 0 0 0 0 1 3 7 13 17 20 21 24 28 30 29 28 27 25 22 17 11 8 7 6 6 6 6 5 4 3 3 2 2
0 0 0 0 0 0 0 0 0 0 0 0 0 0 0 0 2 6 12 17 20 22 25 28 28 26 24 22 20 19 17 12 8 7 7 7 6 5 4 3 3 3 3 3
0 0 0 0 0 0 0 0 0 0 0 0 0 0 0 0 2 6 11 17 20 23 25 26 25 26 25 21 18 18 16 12 8 8 8 8 6 4 3 3 3 3 3 3
0 0 0 0 0 0 0 0 0 0 0 0 0 0 0 1 3 6 11 17 22 23 23 22 24 28 28 24 19 16 12 9 8 8 8 8 6 4 3 3 3 3 3 3
0 0 0 0 0 0 0 0 0 0 0 0 0 0 0 1 2 4 9 16 22 21 19 19 22 26 26 24 20 15 10 7 6 6 6 7 6 5 4 3 3 3 3 3
0 0 0 0 0 0 0 0 0 0 0 0 0 0 1 1 1 1 6 13 18 18 16 17 20 21 21 20 18 15 12 9 7 5 5 5 6 6 5 4 4 4 4 4
0 0 0 0 0 0 0 0 0 0 0 0 0 0 1 1 1 0 3 9 15 17 17 18 19 18 16 15 14 13 12 10 8 6 5 5 6 6 6 6 6 6 5 5
0 0 0 0 0 0 0 0 0 0 0 0 0 0 0 1 2 1 2 6 12 16 19 20 18 17 15 13 11 10 11 10 8 8 7 6 7 7 6 6 6 6 6 5
0 0 0 0 0 0 0 0 0 0 0 0 0 0 1 2 3 3 3 6 11 15 18 19 18 16 15 15 13 12 11 10 9 10 10 9 9 8 7 7 7 6 5 5
0 0 0 0 0 0 0 0 0 0 0 0 0 1 1 2 4 7 7 8 10 13 15 16 17 16 18 21 19 16 14 14 14 15 14 13 11 9 9 9 8 6 4 4
0 0 0 0 0 0 0 0 0 0 0 0 0 1 2 3 7 11 12 12 11 11 12 14 16 19 22 24 21 18 18 19 20 18 16 14 12 10 10 10 9 7 5 4
0 0 0 0 0 0 0 0 0 0 0 0 0 1 2 5 10 15 18 17 15 13 14 15 18 22 25 24 19 17 19 22 22 20 17 13 11 10 9 9 8 7 6 6
0 0 0 0 0 0 0 0 1 2 2 1 0 1 3 8 14 20 22 21 19 18 18 19 23 28 30 26 19 17 19 23 23 21 17 13 10 9 8 7 6 5 6 6
0 0 0 0 0 0 0 0 1 5 5 3 2 2 6 12 19 25 27 24 21 21 22 24 29 34 34 29 22 20 22 24 24 21 17 14 11 10 8 6 4 4 5 6
0 0 0 0 0 0 0 1 3 6 8 7 7 8 13 20 25 28 29 28 25 25 26 27 31 36 34 28 24 24 27 27 24 21 18 17 15 13 11 7 5 4 4 4
0 0 0 0 0 0 1 4 7 9 10 13 15 20 25 30 30 29 30 32 34 34 32 30 32 35 32 27 26 27 28 26 24 21 19 18 17 15 12 7 4 2 1 1
0 0 0 0 0 0 1 5 9 10 11 17 24 29 34 35 31 29 32 38 43 43 40 36 35 34 31 28 28 28 26 23 20 18 17 16 14 13 10 6 3 1 0 0
0 0 0 0 0 0 3 7 8 7 10 20 30 37 39 37 34 33 36 42 46 46 43 39 36 33 29 28 28 26 22 18 15 13 13 12 10 9 7 5 2 1 0 0
0 0 0 0 0 0 4 10 9 8 15 26 36 43 44 44 43 40 38 42 46 45 41 37 33 28 25 25 26 25 18 13 12 11 11 10 8 7 6 4 2 0 0 0
0 0 1 3 4 5 9 14 15 17 25 33 40 45 48 50 47 42 39 42 45 43 38 35 31 25 21 20 23 23 17 12 12 12 11 9 7 6 5 3 1 0 0 0
1 1 4 10 13 14 16 19 22 26 31 36 41 45 47 46 43 39 38 39 39 35 32 31 29 25 20 18 21 21 17 14 13 12 11 9 7 6 4 2 1 0 0 0
2 2 6 12 16 18 20 22 26 31 35 38 40 41 40 37 33 30 28 28 27 26 26 26 26 24 21 20 21 21 18 15 13 11 10 9 7 5 3 1 0 0 0 0
3 3 6 9 12 16 19 21 26 32 37 39 37 35 32 28 25 21 19 18 18 20 22 22 22 22 20 20 22 21 19 16 14 11 10 9 7 4 2 0 0 0 0 0
Wind_Speed
4 6 2 3 4 4 3 2 2 4 2 4 4 3 4 7 7 8 7 7 7 7 4 5 5 6 5 5 5 6 5 4 4 2 2 2 2 1 1 1 2 3 2 2
6 1 3 3 3 3 3 1 1 1 1 3 2 1 2 6 9 8 9 8 8 5 4 5 5 5 6 6 5 5 5 5 5 3 2 2 2 1 1 1 1 2 3 3
4 4 2 3 2 2 1 3 3 2 2 4 3 3 1 2 3 3 5 6 6 8 7 6 6 6 5 6 6 6 5 5 4 4 2 2 1 1 0 1 1 2 3 3
2 3 1 1 1 4 2 2 3 4 5 2 2 1 5 3 3 5 6 6 7 7 6 6 6 6 6 6 5 4 4 4 3 4 3 3 3 2 2 1 2 2 2 2
3 1 1 2 3 5 3 4 4 4 5 3 4 1 8 1 4 7 7 8 8 8 8 8 7 6 5 5 5 4 4 3 3 3 4 3 2 2 1 1 2 2 2 2
4 2 3 4 1 3 5 7 7 6 6 3 1 1 7 4 6 5 6 8 8 8 8 6 6 6 5 5 4 4 4 3 3 3 3 3 3 2 1 1 1 1 1 2
2 2 2 2 3 3 6 7 6 6 5 4 3 1 9 7 6 6 7 8 8 8 8 7 8 8 7 6 5 4 4 2 2 3 2 3 3 2 2 2 1 1 1 1
3 4 3 3 6 6 4 9 9 5 4 4 3 4 8 5 4 3 4 6 7 7 7 8 8 8 8 7 7 6 5 3 3 2 2 2 2 2 1 1 1 1 1 2
6 5 4 2 2 10 7 3 6 9 3 1 5 6 8 3 2 1 3 5 7 7 8 8 8 8 8 8 7 7 6 4 3 2 1 1 1 1 1 0 0 1 1 1
8 3 3 2 5 6 6 9 7 7 6 1 5 4 5 5 3 2 3 6 6 6 6 7 7 7 7 6 6 6 5 4 3 2 2 1 1 1 1 1 1 0 1 1
5 4 3 2 3 6 5 5 7 6 6 7 2 7 7 7 6 7 7 6 7 8 8 8 7 7 7 6 6 6 5 4 3 3 2 2 2 2 2 1 1 1 1 1
5 6 1 4 2 2 4 8 8 7 4 4 4 9 6 6 6 6 5 5 5 6 7 7 7 7 6 6 5 5 5 4 4 4 3 3 2 2 2 1 1 1 2 2
8 7 3 5 5 1 3 4 4 7 7 5 5 8 4 2 2 3 4 4 5 6 6 6 7 6 6 6 6 5 5 5 4 4 4 3 3 2 2 2 2 3 3 3
9 6 8 9 8 5 3 4 5 7 6 5 7 7 6 4 3 3 3 4 5 5 6 6 6 6 6 6 6 6 5 5 5 5 4 4 3 2 2 3 3 3 3 3
7 6 4 4 4 3 4 5 7 6 8 9 9 8 9 8 7 5 5 5 6 6 6 7 7 6 6 6 5 5 5 5 5 5 5 3 3 3 3 4 3 3 4 4
4 6 4 1 1 3 2 3 6 4 4 4 3 7 7 3 2 3 5 7 7 7 7 7 6 7 6 6 6 6 5 5 5 5 4 4 4 4 4 4 3 4 4 4
3 7 6 3 1 3 2 4 5 4 3 6 7 7 2 2 4 6 6 7 7 7 6 7 6 6 6 5 5 5 5 6 6 5 4 4 5 5 4 4 5 4 4 4
7 6 5 4 4 4 8 2 3 4 2 3 4 4 4 4 3 2 3 5 5 5 5 6 5 5 5 5 5 5 5 6 6 5 4 4 5 5 5 5 5 4 4 4
5 8 6 5 4 3 4 1 3 3 1 1 2 1 2 4 4 2 0 2 4 4 4 4 5 5 6 6 6 7 6 6 6 5 5 5 5 6 6 5 5 4 5 5
5 5 7 5 5 6 7 2 1 4 2 2 2 3 4 5 3 3 1 2 3 4 4 4 5 6 6 6 7 8 6 5 4 4 4 5 5 6 6 6 5 4 5 5
4 5 5 5 3 6 5 3 1 4 6 2 3 4 4 3 4 2 3 4 5 5 6 6 6 6 5 6 7 8 6 5 4 5 5 5 6 6 6 6 5 5 6 6
4 4 4 5 4 6 3 1 4 5 2 2 2 3 3 3 3 4 4 5 6 7 7 7 6 6 5 6 7 7 5 5 5 6 6 5 5 5 6 6 5 5 6 6
2 4 5 6 6 4 2 2 2 2 2 1 2 2 5 6 5 4 4 5 5 6 6 6 7 7 5 4 6 7 5 6 6 7 6 6 6 5 5 6 6 5 4 4
1 1 2 1 3 2 2 1 1 1 2 2 3 5 5 6 6 6 5 4 5 5 5 5 7 7 5 4 4 5 6 7 7 7 6 6 6 6 5 4 4 4 4 4
2 1 2 1 3 2 2 2 1 3 5 6 5 4 5 7 7 6 6 5 4 4 4 4 5 6 5 4 4 5 6 7 8 7 6 5 5 6 5 4 3 3 3 2
2 4 4 4 5 3 3 2 1 4 4 5 6 5 4 5 6 5 5 4 4 4 4 4 5 5 4 5 5 4 5 7 8 7 6 5 4 4 5 5 5 7 5 6
Wind_Direction
31 68 118 192 173 165 157 165 236 254 209 149 188 211 189 178 181 185 188 191 202 208 194 172 170 166 160 161 164 172 174 169 155 151 163 169 199 211 199 204 205 204 204 192
42 352 225 180 161 138 141 132 280 327 48 126 144 268 212 195 202 196 193 197 201 195 175 171 165 163 168 173 173 173 174 177 178 173 162 163 162 181 198 221 214 215 209 202
163 231 206 152 122 118 168 179 194 168 64 50 83 353 274 241 226 208 194 195 194 191 186 178 173 172 168 176 182 183 181 183 184 169 137 112 89 68 139 234 243 238 219 210
221 251 199 141 172 146 234 231 164 129 99 12 74 270 280 242 236 224 208 192 194 188 177 177 180 180 182 185 177 169 166 172 176 163 161 170 178 191 214 218 235 255 230 219
230 218 145 192 212 168 181 70 83 83 100 57 30 105 287 326 247 240 219 201 196 187 178 181 182 182 174 160 155 153 148 162 167 166 173 173 188 196 207 213 234 256 264 247
232 244 212 206 151 133 117 71 54 46 64 46 315 142 279 249 230 240 213 199 193 182 174 171 162 148 146 139 140 142 147 164 167 167 171 177 188 188 203 244 251 263 270 264
306 293 254 170 103 53 87 85 41 15 19 262 290 210 254 258 238 220 203 193 185 176 164 163 159 156 154 152 152 151 150 168 166 166 179 188 192 185 204 238 239 250 274 277
166 270 252 191 169 155 145 132 149 173 202 273 331 251 262 274 278 226 185 168 166 169 165 168 167 163 163 162 159 156 160 183 172 167 188 188 185 189 214 228 229 236 249 262
168 239 284 250 164 130 126 127 147 123 136 11 299 297 305 327 2 99 148 158 173 176 171 168 162 163 165 166 165 166 167 169 165 167 168 166 168 167 191 197 192 246 269 273
152 196 295 319 81 34 127 138 103 108 130 214 304 293 261 270 259 227 189 191 187 173 165 160 161 164 162 165 161 159 159 167 166 156 164 163 146 136 129 109 98 51 20 33
135 142 318 32 155 162 109 89 97 99 137 145 214 270 233 225 217 212 215 204 183 175 169 164 164 160 156 156 155 154 156 155 148 145 137 115 107 102 94 85 76 78 62 70
138 120 209 268 283 189 148 155 143 141 177 156 162 263 271 236 226 210 210 199 179 173 164 158 154 149 150 157 157 156 159 155 151 143 131 121 108 100 94 80 73 78 80 76
138 117 93 350 345 18 118 133 128 118 113 144 161 260 303 311 241 202 188 176 164 161 155 150 148 156 162 162 157 158 156 152 145 135 130 125 120 115 105 86 81 75 74 70
118 116 154 183 207 189 159 148 142 122 137 179 213 244 289 282 251 221 179 160 152 157 157 157 159 164 164 160 159 160 155 150 143 137 136 136 138 133 119 98 84 78 76 69
115 141 178 204 201 169 172 169 166 167 173 175 217 222 244 237 223 209 176 157 153 161 165 170 169 164 160 157 158 156 154 150 146 142 144 148 135 119 107 96 87 80 76 70
91 142 148 190 198 181 172 182 174 181 170 197 212 247 250 248 177 167 167 170 178 182 178 174 169 163 164 166 162 156 154 151 143 143 146 135 122 112 105 98 88 82 78 76
106 121 125 199 251 104 233 208 177 172 178 171 200 234 222 188 190 191 182 179 188 187 178 174 175 169 165 165 162 163 160 149 144 143 139 132 126 118 112 106 92 82 75 77
129 114 120 131 112 193 239 254 163 148 178 212 227 236 202 200 182 164 164 179 189 182 177 175 169 160 151 148 146 142 141 142 139 137 134 129 125 117 105 98 92 82 75 75
131 128 115 121 153 239 286 217 151 146 246 240 202 183 130 115 85 30 96 157 177 176 170 171 165 154 144 143 140 132 129 129 131 135 135 132 127 121 114 105 100 96 92 81
61 90 110 120 139 205 233 254 222 116 279 261 176 165 146 118 120 252 238 117 110 109 121 130 129 123 128 131 129 125 124 125 128 128 127 123 118 118 117 114 106 97 97 92
56 57 103 133 165 244 252 284 102 156 233 232 183 177 158 166 193 194 120 113 113 108 105 112 119 120 124 126 128 129 129 136 130 120 115 112 115 117 117 110 104 107 101 93
150 134 149 133 151 239 288 83 158 210 222 167 165 164 149 134 104 97 102 111 113 108 105 112 118 113 112 124 131 131 138 135 123 123 121 115 111 114 115 113 108 107 107 100
167 181 180 181 202 239 268 226 236 172 158 171 151 137 135 123 104 91 89 98 105 110 111 112 117 112 108 120 136 141 140 129 125 120 117 113 105 97 105 115 118 112 107 109
320 111 123 278 286 298 315 317 1 124 135 112 116 118 115 113 111 103 92 86 89 96 106 110 114 117 118 117 114 123 127 130 128 126 124 120 116 107 99 100 109 114 115 116
242 120 109 263 282 338 351 352 36 83 92 95 91 93 112 118 117 117 114 107 98 95 96 110 121 127 129 120 113 122 131 133 131 131 128 124 122 123 114 98 84 105 102 132
215 175 164 213 227 199 242 284 98 97 94 105 106 93 87 111 120 115 114 114 111 111 114 115 116 122 125 124 121 124 134 138 137 137 137 135 132 126 124 117 89 59 75 89